Location: Boda
(47.1872°N, 9.5454°E)
Time: 16:37:23
(UTC+00:00)

Cosmos 2263 Rocket - Pass Details

Date: 14 May 2021
Orbit: 822 x 849 km, 71.0° (Epoch: 16 June)

Event Time Altitude Azimuth Distance (km) Brightness Sun altitude
Rises 02:50:21 0° 330° (NNW) 3,399 5.5 -8.8°
Reaches altitude 10° 02:52:49 10° 327° (NNW) 2,464 4.7 -8.4°
Maximum altitude 02:58:24 63° 248° (WSW) 940 2.2 -7.7°
Drops below altitude 10° 03:03:58 10° 169° (SSE) 2,463 4.4 -7.0°
Sets 03:06:26 0° 166° (SSE) 3,397 5.1 -6.6°
